TimeCST,TemperatureF,Dew PointF,Humidity,Sea Level PressureIn,VisibilityMPH,Wind Direction,Wind SpeedMPH,Gust SpeedMPH,PrecipitationIn,Events,Conditions,WindDirDegrees,DateUTC
12:15 AM,50.0,50.0,100,30.06,7.0,SSE,4.6,-,N/A,,Scattered Clouds,160,2012-12-01 06:15:00
12:35 AM,50.0,50.0,100,30.06,5.0,SE,5.8,-,N/A,,Mostly Cloudy,140,2012-12-01 06:35:00
12:55 AM,50.0,50.0,100,30.05,5.0,SE,6.9,-,N/A,,Mostly Cloudy,140,2012-12-01 06:55:00
1:15 AM,50.0,50.0,100,30.05,5.0,SE,8.1,-,N/A,,Scattered Clouds,140,2012-12-01 07:15:00
1:35 AM,50.0,50.0,100,30.04,5.0,SE,6.9,-,N/A,,Clear,140,2012-12-01 07:35:00
1:55 AM,50.0,50.0,100,30.04,5.0,SE,8.1,-,N/A,,Clear,140,2012-12-01 07:55:00
2:15 AM,51.8,50.0,94,30.04,5.0,SE,8.1,-,N/A,,Clear,140,2012-12-01 08:15:00
2:35 AM,51.8,51.8,100,30.03,5.0,SE,8.1,-,N/A,,Clear,140,2012-12-01 08:35:00
2:55 AM,51.8,50.0,94,30.03,5.0,SE,6.9,-,N/A,,Clear,140,2012-12-01 08:55:00
3:15 AM,51.8,51.8,100,30.02,7.0,SE,8.1,-,N/A,,Clear,140,2012-12-01 09:15:00
3:35 AM,51.8,51.8,100,30.02,7.0,SSE,6.9,-,N/A,,Clear,160,2012-12-01 09:35:00
4:15 AM,53.6,51.8,94,30.01,10.0,SSE,9.2,-,N/A,,Clear,150,2012-12-01 10:15:00
4:35 AM,55.4,51.8,88,30.00,10.0,SSE,10.4,16.1,N/A,,Clear,160,2012-12-01 10:35:00
4:55 AM,53.6,51.8,94,30.00,7.0,SSE,8.1,-,N/A,,Clear,150,2012-12-01 10:55:00
5:15 AM,53.6,51.8,94,30.00,7.0,SSE,9.2,-,N/A,,Clear,150,2012-12-01 11:15:00
5:35 AM,53.6,51.8,94,30.00,7.0,SSE,9.2,-,N/A,,Scattered Clouds,150,2012-12-01 11:35:00
5:55 AM,53.6,51.8,94,30.00,7.0,SE,10.4,-,N/A,,Mostly Cloudy,140,2012-12-01 11:55:00
6:15 AM,53.6,51.8,94,30.00,7.0,SE,10.4,-,N/A,,Overcast,140,2012-12-01 12:15:00
6:35 AM,53.6,51.8,94,29.99,7.0,SE,10.4,-,N/A,,Overcast,140,2012-12-01 12:35:00
6:55 AM,55.4,53.6,94,29.99,10.0,SSE,10.4,-,N/A,,Overcast,160,2012-12-01 12:55:00
7:15 AM,59.0,55.4,88,29.99,10.0,South,15.0,19.6,N/A,,Overcast,170,2012-12-01 13:15:00
7:35 AM,59.0,55.4,88,29.99,10.0,South,17.3,23.0,N/A,,Overcast,170,2012-12-01 13:35:00
8:15 AM,60.8,55.4,82,29.98,10.0,South,19.6,24.2,N/A,,Overcast,170,2012-12-01 14:15:00
8:35 AM,60.8,55.4,82,29.98,10.0,South,16.1,-,N/A,,Overcast,170,2012-12-01 14:35:00
8:55 AM,60.8,55.4,82,29.98,10.0,South,16.1,23.0,N/A,,Overcast,170,2012-12-01 14:55:00
9:15 AM,60.8,55.4,82,29.98,10.0,South,16.1,23.0,N/A,,Overcast,170,2012-12-01 15:15:00
9:35 AM,60.8,55.4,82,29.98,10.0,South,18.4,21.9,N/A,,Overcast,170,2012-12-01 15:35:00
9:55 AM,62.6,57.2,82,29.97,10.0,South,16.1,28.8,N/A,,Overcast,170,2012-12-01 15:55:00
10:15 AM,62.6,57.2,82,29.97,10.0,South,19.6,27.6,N/A,,Mostly Cloudy,170,2012-12-01 16:15:00
10:35 AM,64.4,57.2,77,29.97,10.0,South,17.3,24.2,N/A,,Overcast,190,2012-12-01 16:35:00
10:55 AM,66.2,57.2,73,29.95,10.0,South,24.2,28.8,N/A,,Overcast,190,2012-12-01 16:55:00
11:15 AM,64.4,57.2,77,29.94,10.0,South,19.6,31.1,N/A,,Overcast,180,2012-12-01 17:15:00
11:35 AM,68.0,57.2,68,29.93,10.0,South,20.7,32.2,N/A,,Overcast,180,2012-12-01 17:35:00
11:55 AM,68.0,55.4,64,29.92,10.0,South,23.0,34.5,N/A,,Mostly Cloudy,190,2012-12-01 17:55:00
12:15 PM,68.0,55.4,64,29.90,10.0,South,24.2,32.2,N/A,,Mostly Cloudy,180,2012-12-01 18:15:00
12:35 PM,68.0,55.4,64,29.89,10.0,South,29.9,40.3,N/A,,Mostly Cloudy,180,2012-12-01 18:35:00
12:55 PM,68.0,55.4,64,29.89,10.0,South,26.5,34.5,N/A,,Overcast,180,2012-12-01 18:55:00
1:15 PM,68.0,55.4,64,29.88,10.0,South,25.3,35.7,N/A,,Mostly Cloudy,190,2012-12-01 19:15:00
1:35 PM,68.0,55.4,64,29.87,10.0,South,25.3,38.0,N/A,,Mostly Cloudy,180,2012-12-01 19:35:00
1:55 PM,68.0,55.4,64,29.87,10.0,South,31.1,39.1,N/A,,Overcast,190,2012-12-01 19:55:00
2:15 PM,69.8,55.4,60,29.86,10.0,South,24.2,34.5,N/A,,Mostly Cloudy,180,2012-12-01 20:15:00
2:35 PM,68.0,55.4,64,29.86,10.0,South,28.8,35.7,N/A,,Mostly Cloudy,190,2012-12-01 20:35:00
2:55 PM,69.8,55.4,60,29.86,10.0,South,23.0,29.9,N/A,,Mostly Cloudy,190,2012-12-01 20:55:00
3:15 PM,68.0,55.4,64,29.85,10.0,South,24.2,29.9,N/A,,Mostly Cloudy,180,2012-12-01 21:15:00
3:35 PM,68.0,55.4,64,29.86,10.0,South,21.9,32.2,N/A,,Mostly Cloudy,180,2012-12-01 21:35:00
3:55 PM,68.0,55.4,64,29.86,10.0,South,23.0,31.1,N/A,,Scattered Clouds,190,2012-12-01 21:55:00
4:15 PM,68.0,55.4,64,29.85,10.0,South,21.9,29.9,N/A,,Scattered Clouds,180,2012-12-01 22:15:00
4:35 PM,68.0,55.4,64,29.86,10.0,South,20.7,27.6,N/A,,Scattered Clouds,180,2012-12-01 22:35:00
4:55 PM,68.0,55.4,64,29.86,10.0,South,20.7,27.6,N/A,,Clear,180,2012-12-01 22:55:00
5:15 PM,66.2,55.4,68,29.87,10.0,South,13.8,-,N/A,,Scattered Clouds,190,2012-12-01 23:15:00
5:55 PM,66.2,55.4,68,29.89,10.0,South,12.7,23.0,N/A,,Mostly Cloudy,190,2012-12-01 23:55:00
6:15 PM,66.2,55.4,68,29.90,10.0,South,13.8,-,N/A,,Overcast,190,2012-12-02 00:15:00
6:35 PM,64.4,55.4,73,29.91,10.0,SSW,11.5,18.4,N/A,,Overcast,200,2012-12-02 00:35:00
6:55 PM,64.4,55.4,73,29.92,10.0,South,8.1,-,N/A,,Overcast,190,2012-12-02 00:55:00
7:15 PM,64.4,55.4,73,29.92,10.0,SSW,9.2,-,N/A,,Overcast,200,2012-12-02 01:15:00
7:35 PM,64.4,57.2,77,29.93,10.0,SSW,15.0,25.3,N/A,,Mostly Cloudy,200,2012-12-02 01:35:00
7:55 PM,64.4,55.4,73,29.93,10.0,South,13.8,20.7,N/A,,Mostly Cloudy,190,2012-12-02 01:55:00
8:15 PM,64.4,57.2,77,29.93,10.0,South,16.1,19.6,N/A,,Mostly Cloudy,190,2012-12-02 02:15:00
8:35 PM,64.4,57.2,77,29.93,10.0,SSW,12.7,19.6,N/A,,Overcast,200,2012-12-02 02:35:00
8:55 PM,64.4,57.2,77,29.93,10.0,South,12.7,-,N/A,,Overcast,180,2012-12-02 02:55:00
9:15 PM,62.6,57.2,82,29.93,10.0,South,12.7,-,N/A,,Mostly Cloudy,190,2012-12-02 03:15:00
9:35 PM,62.6,57.2,82,29.94,10.0,SSW,12.7,18.4,N/A,,Mostly Cloudy,200,2012-12-02 03:35:00
9:55 PM,62.6,57.2,82,29.94,10.0,SSW,11.5,19.6,N/A,,Mostly Cloudy,200,2012-12-02 03:55:00
10:15 PM,62.6,59.0,88,29.94,10.0,SSW,13.8,-,N/A,,Scattered Clouds,200,2012-12-02 04:15:00
10:35 PM,64.4,59.0,83,29.94,10.0,SSW,12.7,-,N/A,,Scattered Clouds,200,2012-12-02 04:35:00
10:55 PM,64.4,59.0,83,29.94,10.0,South,13.8,20.7,N/A,,Scattered Clouds,190,2012-12-02 04:55:00
11:15 PM,62.6,59.0,88,29.94,10.0,South,12.7,18.4,N/A,,Clear,180,2012-12-02 05:15:00
11:35 PM,62.6,59.0,88,29.94,10.0,South,13.8,-,N/A,,Clear,190,2012-12-02 05:35:00
11:55 PM,62.6,59.0,88,29.94,10.0,South,12.7,-,N/A,,Clear,190,2012-12-02 05:55:00